Time,TemperatureF,DewpointF,PressureIn,WindDirection,WindDirectionDegrees,WindSpeedMPH,WindSpeedGustMPH,Humidity,HourlyPrecipIn,Conditions,Clouds,dailyrainin,SoftwareType,DateUTC
2013-03-09 00:00:00,49.2,47.0,29.98,East,100,0.0,0.0,92,0.02,,,0.56,VWS V14.01,2013-03-09 08:00:00,
2013-03-09 00:03:00,49.2,47.0,29.98,East,101,0.0,0.0,92,0.01,,,0.00,VWS V14.01,2013-03-09 08:03:00,
2013-03-09 00:06:00,49.2,47.0,29.98,East,94,0.0,0.0,92,0.00,,,0.00,VWS V14.01,2013-03-09 08:06:00,
2013-03-09 00:07:00,49.2,47.0,29.98,East,94,0.0,0.0,92,0.00,,,0.00,VWS V14.01,2013-03-09 08:07:00,
2013-03-09 00:11:00,49.2,47.0,29.98,East,94,0.0,0.0,92,0.00,,,0.00,VWS V14.01,2013-03-09 08:11:00,
2013-03-09 00:12:00,49.3,47.1,29.98,East,94,0.0,0.0,92,0.00,,,0.00,VWS V14.01,2013-03-09 08:12:00,
2013-03-09 00:14:00,49.3,47.1,29.98,East,87,0.0,0.0,92,0.00,,,0.00,VWS V14.01,2013-03-09 08:14:00,
2013-03-09 00:16:00,49.3,47.1,29.98,East,88,0.0,0.0,92,0.00,,,0.00,VWS V14.01,2013-03-09 08:16:00,
2013-03-09 00:17:00,49.3,47.1,29.99,East,87,0.0,0.0,92,0.00,,,0.00,VWS V14.01,2013-03-09 08:17:00,
2013-03-09 00:19:00,49.3,47.1,29.98,ESE,116,0.0,0.0,92,0.00,,,0.00,VWS V14.01,2013-03-09 08:19:00,
2013-03-09 00:21:00,49.3,47.1,29.98,ESE,113,0.0,0.0,92,0.00,,,0.00,VWS V14.01,2013-03-09 08:21:00,
2013-03-09 00:22:00,49.3,47.1,29.99,ESE,113,0.0,0.0,92,0.00,,,0.00,VWS V14.01,2013-03-09 08:22:00,
2013-03-09 00:23:00,49.3,47.4,29.98,ESE,111,0.0,0.0,93,0.00,,,0.00,VWS V14.01,2013-03-09 08:23:00,
2013-03-09 00:26:00,49.3,47.4,29.99,SE,128,0.0,0.0,93,0.00,,,0.00,VWS V14.01,2013-03-09 08:26:00,
2013-03-09 00:28:00,49.3,47.4,29.99,ESE,109,0.0,0.0,93,0.00,,,0.00,VWS V14.01,2013-03-09 08:28:00,
2013-03-09 00:30:00,49.2,47.0,29.99,SE,124,0.0,0.0,92,0.00,,,0.00,VWS V14.01,2013-03-09 08:30:00,
2013-03-09 00:31:00,49.2,47.0,29.99,ESE,103,1.0,2.0,92,0.00,,,0.00,VWS V14.01,2013-03-09 08:31:00,
2013-03-09 00:33:00,49.1,46.9,29.98,ESE,118,1.0,1.0,92,0.00,,,0.00,VWS V14.01,2013-03-09 08:33:00,
2013-03-09 00:37:00,49.1,47.2,29.98,ESE,123,0.0,1.0,93,0.00,,,0.00,VWS V14.01,2013-03-09 08:37:00,
2013-03-09 00:38:00,49.1,47.2,29.98,ESE,122,0.0,0.0,93,0.00,,,0.00,VWS V14.01,2013-03-09 08:38:00,
2013-03-09 00:39:00,49.1,47.2,29.98,ESE,122,0.0,0.0,93,0.00,,,0.00,VWS V14.01,2013-03-09 08:39:00,
2013-03-09 00:42:00,49.1,47.2,29.98,East,88,1.0,2.0,93,0.00,,,0.00,VWS V14.01,2013-03-09 08:42:00,
2013-03-09 00:43:00,49.1,47.2,29.98,East,97,2.0,2.0,93,0.00,,,0.00,VWS V14.01,2013-03-09 08:43:00,
2013-03-09 00:44:00,49.1,47.2,29.98,SE,133,0.0,2.0,93,0.00,,,0.00,VWS V14.01,2013-03-09 08:44:00,
2013-03-09 00:46:00,49.1,47.2,29.98,SE,139,1.0,1.0,93,0.00,,,0.00,VWS V14.01,2013-03-09 08:46:00,
2013-03-09 00:49:00,49.1,47.2,29.98,ESE,120,0.0,0.0,93,0.00,,,0.00,VWS V14.01,2013-03-09 08:49:00,
2013-03-09 00:51:00,49.1,47.2,29.99,SE,141,0.0,0.0,93,0.00,,,0.00,VWS V14.01,2013-03-09 08:51:00,
2013-03-09 00:52:00,49.1,47.2,29.99,ESE,108,0.0,0.0,93,0.00,,,0.00,VWS V14.01,2013-03-09 08:52:00,
2013-03-09 00:55:00,49.2,47.3,29.99,SSE,153,0.0,1.0,93,0.00,,,0.00,VWS V14.01,2013-03-09 08:55:00,
2013-03-09 00:56:00,49.2,47.3,29.99,SSE,153,0.0,0.0,93,0.00,,,0.00,VWS V14.01,2013-03-09 08:56:00,
2013-03-09 00:57:00,49.2,47.3,29.99,SSE,150,1.0,1.0,93,0.00,,,0.00,VWS V14.01,2013-03-09 08:57:00,
2013-03-09 01:00:00,49.2,47.3,29.99,SE,138,1.0,1.0,93,0.00,,,0.00,VWS V14.01,2013-03-09 09:00:00,
2013-03-09 01:01:00,49.2,47.3,29.99,SE,134,1.0,1.0,93,0.00,,,0.00,VWS V14.01,2013-03-09 09:01:00,
2013-03-09 01:03:00,49.2,47.3,29.99,SE,131,1.0,1.0,93,0.00,,,0.00,VWS V14.01,2013-03-09 09:03:00,
2013-03-09 01:05:00,49.2,47.3,29.99,SE,145,1.0,1.0,93,0.00,,,0.00,VWS V14.01,2013-03-09 09:05:00,
2013-03-09 01:06:00,49.3,47.4,29.99,SSE,155,1.0,1.0,93,0.00,,,0.00,VWS V14.01,2013-03-09 09:06:00,
2013-03-09 01:07:00,49.2,47.3,29.99,ESE,122,1.0,1.0,93,0.00,,,0.00,VWS V14.01,2013-03-09 09:07:00,
2013-03-09 01:08:00,49.2,47.3,29.99,ESE,122,1.0,2.0,93,0.00,,,0.00,VWS V14.01,2013-03-09 09:08:00,
2013-03-09 01:12:00,49.2,47.3,29.99,SE,139,1.0,2.0,93,0.00,,,0.00,VWS V14.01,2013-03-09 09:12:00,
2013-03-09 01:14:00,49.2,47.3,29.99,SE,145,1.0,1.0,93,0.00,,,0.00,VWS V14.01,2013-03-09 09:14:00,
2013-03-09 01:15:00,49.2,47.3,29.99,SE,145,0.0,1.0,93,0.00,,,0.00,VWS V14.01,2013-03-09 09:15:00,
2013-03-09 01:17:00,49.2,47.3,29.99,SE,145,0.0,1.0,93,0.00,,,0.00,VWS V14.01,2013-03-09 09:17:00,
2013-03-09 01:19:00,49.2,47.3,29.99,SE,145,0.0,0.0,93,0.00,,,0.00,VWS V14.01,2013-03-09 09:19:00,
2013-03-09 01:20:00,49.2,47.3,29.99,SE,145,0.0,0.0,93,0.00,,,0.00,VWS V14.01,2013-03-09 09:20:00,
2013-03-09 01:21:00,49.2,47.3,29.99,SE,136,0.0,0.0,93,0.00,,,0.00,VWS V14.01,2013-03-09 09:21:00,
2013-03-09 01:22:00,49.2,47.3,29.99,SE,136,0.0,0.0,93,0.00,,,0.00,VWS V14.01,2013-03-09 09:22:00,
2013-03-09 01:24:00,49.2,47.3,29.99,East,97,0.0,0.0,93,0.00,,,0.00,VWS V14.01,2013-03-09 09:24:00,
2013-03-09 01:26:00,49.2,47.3,29.99,East,98,0.0,0.0,93,0.00,,,0.00,VWS V14.01,2013-03-09 09:26:00,
2013-03-09 01:28:00,49.3,47.4,29.99,East,97,0.0,0.0,93,0.00,,,0.00,VWS V14.01,2013-03-09 09:28:00,
2013-03-09 01:29:00,49.3,47.4,29.99,East,97,1.0,2.0,93,0.00,,,0.00,VWS V14.01,2013-03-09 09:29:00,
2013-03-09 01:30:00,49.3,47.4,29.99,East,98,0.0,1.0,93,0.00,,,0.00,VWS V14.01,2013-03-09 09:30:00,
2013-03-09 01:31:00,49.4,47.5,29.99,ESE,107,0.0,1.0,93,0.00,,,0.00,VWS V14.01,2013-03-09 09:31:00,
2013-03-09 01:34:00,49.4,47.5,29.99,ESE,107,0.0,0.0,93,0.00,,,0.00,VWS V14.01,2013-03-09 09:34:00,
2013-03-09 01:36:00,49.5,47.6,29.99,ESE,115,1.0,2.0,93,0.00,,,0.00,VWS V14.01,2013-03-09 09:36:00,
2013-03-09 01:38:00,49.4,47.5,29.99,SSE,160,2.0,2.0,93,0.00,,,0.00,VWS V14.01,2013-03-09 09:38:00,
2013-03-09 01:40:00,49.4,47.5,29.98,SSE,163,1.0,2.0,93,0.00,,,0.00,VWS V14.01,2013-03-09 09:40:00,
2013-03-09 01:43:00,49.4,47.5,29.99,SSE,163,0.0,0.0,93,0.00,,,0.00,VWS V14.01,2013-03-09 09:43:00,
2013-03-09 01:44:00,49.4,47.5,29.98,SSE,163,0.0,0.0,93,0.00,,,0.00,VWS V14.01,2013-03-09 09:44:00,
2013-03-09 01:46:00,49.4,47.5,29.98,SSE,163,0.0,0.0,93,0.00,,,0.00,VWS V14.01,2013-03-09 09:46:00,
2013-03-09 01:47:00,49.4,47.5,29.98,WSW,256,2.0,4.0,93,0.00,,,0.00,VWS V14.01,2013-03-09 09:47:00,
2013-03-09 01:49:00,49.4,47.5,29.99,South,181,2.0,3.0,93,0.00,,,0.00,VWS V14.01,2013-03-09 09:49:00,
2013-03-09 01:51:00,49.5,47.6,29.98,SW,225,0.0,1.0,93,0.00,,,0.00,VWS V14.01,2013-03-09 09:51:00,
2013-03-09 01:52:00,49.5,47.6,29.98,SSW,208,1.0,4.0,93,0.00,,,0.00,VWS V14.01,2013-03-09 09:52:00,
2013-03-09 01:55:00,49.6,47.7,29.98,WSW,255,0.0,2.0,93,0.00,,,0.00,VWS V14.01,2013-03-09 09:55:00,
2013-03-09 01:56:00,49.6,47.7,29.98,South,174,2.0,2.0,93,0.00,,,0.00,VWS V14.01,2013-03-09 09:56:00,
2013-03-09 02:01:00,49.7,47.5,29.98,West,277,1.0,5.0,92,0.00,,,0.00,VWS V14.01,2013-03-09 10:01:00,
2013-03-09 02:02:00,49.8,47.6,29.98,WSW,255,1.0,1.0,92,0.00,,,0.00,VWS V14.01,2013-03-09 10:02:00,
2013-03-09 02:05:00,50.0,47.8,29.98,SSW,204,1.0,2.0,92,0.00,,,0.00,VWS V14.01,2013-03-09 10:05:00,
2013-03-09 02:06:00,50.0,47.8,29.98,SSW,207,1.0,2.0,92,0.00,,,0.00,VWS V14.01,2013-03-09 10:06:00,
2013-03-09 02:07:00,50.0,47.8,29.98,SE,139,1.0,2.0,92,0.00,,,0.00,VWS V14.01,2013-03-09 10:07:00,
2013-03-09 02:10:00,50.1,47.6,29.98,SSW,195,4.0,6.0,91,0.00,,,0.00,VWS V14.01,2013-03-09 10:10:00,
2013-03-09 02:11:00,50.1,47.6,29.98,SW,236,3.0,4.0,91,0.00,,,0.00,VWS V14.01,2013-03-09 10:11:00,
2013-03-09 02:12:00,50.1,47.6,29.98,SW,222,1.0,4.0,91,0.00,,,0.00,VWS V14.01,2013-03-09 10:12:00,
2013-03-09 02:13:00,50.2,47.7,29.98,WSW,242,2.0,2.0,91,0.00,,,0.00,VWS V14.01,2013-03-09 10:13:00,
2013-03-09 02:17:00,50.3,47.5,29.98,West,262,6.0,7.0,90,0.00,,,0.00,VWS V14.01,2013-03-09 10:17:00,
2013-03-09 02:18:00,50.3,47.5,29.98,West,269,2.0,6.0,90,0.00,,,0.00,VWS V14.01,2013-03-09 10:18:00,
2013-03-09 02:19:00,50.4,47.6,29.98,SW,232,1.0,4.0,90,0.00,,,0.00,VWS V14.01,2013-03-09 10:19:00,
2013-03-09 02:23:00,50.5,47.4,29.98,WSW,243,1.0,4.0,89,0.00,,,0.00,VWS V14.01,2013-03-09 10:23:00,
2013-03-09 02:24:00,50.5,47.4,29.98,WSW,249,1.0,1.0,89,0.00,,,0.00,VWS V14.01,2013-03-09 10:24:00,
2013-03-09 02:26:00,50.6,47.5,29.98,WSW,255,4.0,6.0,89,0.00,,,0.00,VWS V14.01,2013-03-09 10:26:00,
2013-03-09 02:30:00,50.6,47.5,29.98,SE,141,2.0,3.0,89,0.00,,,0.00,VWS V14.01,2013-03-09 10:30:00,
2013-03-09 02:32:00,50.7,47.6,29.98,SW,236,2.0,2.0,89,0.00,,,0.00,VWS V14.01,2013-03-09 10:32:00,
2013-03-09 02:35:00,50.7,47.6,29.98,SSW,210,5.0,6.0,89,0.00,,,0.00,VWS V14.01,2013-03-09 10:35:00,
2013-03-09 02:37:00,50.7,47.6,29.98,SW,231,2.0,3.0,89,0.00,,,0.00,VWS V14.01,2013-03-09 10:37:00,
2013-03-09 02:39:00,50.7,47.6,29.98,SW,219,5.0,5.0,89,0.00,,,0.00,VWS V14.01,2013-03-09 10:39:00,
2013-03-09 02:40:00,50.7,47.6,29.98,WSW,238,1.0,3.0,89,0.00,,,0.00,VWS V14.01,2013-03-09 10:40:00,
2013-03-09 02:42:00,50.7,47.6,29.98,WSW,255,2.0,2.0,89,0.00,,,0.00,VWS V14.01,2013-03-09 10:42:00,
2013-03-09 02:44:00,50.8,47.7,29.98,SW,229,3.0,5.0,89,0.00,,,0.00,VWS V14.01,2013-03-09 10:44:00,
2013-03-09 02:45:00,50.8,47.7,29.98,SW,218,5.0,5.0,89,0.00,,,0.00,VWS V14.01,2013-03-09 10:45:00,
2013-03-09 02:46:00,50.8,47.7,29.98,West,262,3.0,5.0,89,0.00,,,0.00,VWS V14.01,2013-03-09 10:46:00,
2013-03-09 02:47:00,50.8,47.7,29.98,SW,222,2.0,3.0,89,0.00,,,0.00,VWS V14.01,2013-03-09 10:47:00,
2013-03-09 02:50:00,50.8,47.7,29.98,WSW,245,1.0,1.0,89,0.00,,,0.00,VWS V14.01,2013-03-09 10:50:00,
2013-03-09 02:51:00,50.8,47.7,29.98,West,272,3.0,3.0,89,0.00,,,0.00,VWS V14.01,2013-03-09 10:51:00,
2013-03-09 02:52:00,50.8,47.7,29.98,WSW,242,2.0,4.0,89,0.00,,,0.00,VWS V14.01,2013-03-09 10:52:00,
2013-03-09 02:55:00,50.8,47.7,29.98,West,270,1.0,2.0,89,0.00,,,0.00,VWS V14.01,2013-03-09 10:55:00,
2013-03-09 02:58:00,50.8,47.7,29.98,WSW,251,3.0,5.0,89,0.00,,,0.00,VWS V14.01,2013-03-09 10:58:00,
2013-03-09 03:01:00,50.8,47.7,29.98,West,265,3.0,3.0,89,0.00,,,0.00,VWS V14.01,2013-03-09 11:01:00,
2013-03-09 03:03:00,50.9,47.8,29.98,WSW,247,2.0,5.0,89,0.00,,,0.00,VWS V14.01,2013-03-09 11:03:00,
2013-03-09 03:05:00,50.9,47.8,29.98,West,264,4.0,4.0,89,0.00,,,0.00,VWS V14.01,2013-03-09 11:05:00,
2013-03-09 03:08:00,50.9,47.8,29.98,West,281,3.0,3.0,89,0.00,,,0.00,VWS V14.01,2013-03-09 11:08:00,
2013-03-09 03:09:00,50.9,47.8,29.98,WSW,249,1.0,3.0,89,0.00,,,0.00,VWS V14.01,2013-03-09 11:09:00,
2013-03-09 03:11:00,50.9,47.8,29.98,West,260,0.0,0.0,89,0.00,,,0.00,VWS V14.01,2013-03-09 11:11:00,
2013-03-09 03:13:00,50.9,47.8,29.98,West,260,0.0,1.0,89,0.00,,,0.00,VWS V14.01,2013-03-09 11:13:00,
2013-03-09 03:15:00,50.9,47.8,29.98,WNW,286,1.0,1.0,89,0.00,,,0.00,VWS V14.01,2013-03-09 11:15:00,
2013-03-09 03:16:00,50.9,47.8,29.98,West,263,2.0,2.0,89,0.00,,,0.00,VWS V14.01,2013-03-09 11:16:00,
2013-03-09 03:18:00,50.8,47.7,29.98,NW,311,3.0,4.0,89,0.00,,,0.00,VWS V14.01,2013-03-09 11:18:00,
2013-03-09 03:23:00,50.8,47.7,29.98,West,277,0.0,1.0,89,0.00,,,0.00,VWS V14.01,2013-03-09 11:23:00,
2013-03-09 03:25:00,50.8,47.7,29.98,West,277,0.0,0.0,89,0.00,,,0.00,VWS V14.01,2013-03-09 11:25:00,
2013-03-09 03:27:00,50.8,47.7,29.98,WSW,242,1.0,1.0,89,0.00,,,0.00,VWS V14.01,2013-03-09 11:27:00,
2013-03-09 03:28:00,50.8,47.7,29.98,WSW,242,0.0,0.0,89,0.00,,,0.00,VWS V14.01,2013-03-09 11:28:00,
2013-03-09 03:32:00,50.8,47.7,29.98,WSW,257,0.0,0.0,89,0.00,,,0.00,VWS V14.01,2013-03-09 11:32:00,
2013-03-09 03:33:00,50.8,47.7,29.98,West,270,3.0,4.0,89,0.00,,,0.00,VWS V14.01,2013-03-09 11:33:00,
2013-03-09 03:34:00,50.7,47.6,29.98,WSW,255,0.0,4.0,89,0.00,,,0.00,VWS V14.01,2013-03-09 11:34:00,
2013-03-09 03:37:00,50.7,47.6,29.98,West,267,1.0,1.0,89,0.00,,,0.00,VWS V14.01,2013-03-09 11:37:00,
2013-03-09 03:39:00,50.7,47.6,29.98,West,276,1.0,3.0,89,0.00,,,0.00,VWS V14.01,2013-03-09 11:39:00,
2013-03-09 03:41:00,50.7,47.6,29.98,SW,236,1.0,1.0,89,0.00,,,0.00,VWS V14.01,2013-03-09 11:41:00,
2013-03-09 03:42:00,50.7,47.6,29.98,WSW,245,1.0,1.0,89,0.00,,,0.00,VWS V14.01,2013-03-09 11:42:00,
2013-03-09 03:44:00,50.7,47.6,29.98,West,274,2.0,4.0,89,0.00,,,0.00,VWS V14.01,2013-03-09 11:44:00,
2013-03-09 03:48:00,50.6,47.2,29.98,WNW,284,2.0,7.0,88,0.00,,,0.00,VWS V14.01,2013-03-09 11:48:00,
2013-03-09 03:49:00,50.6,47.2,29.98,West,273,1.0,3.0,88,0.00,,,0.00,VWS V14.01,2013-03-09 11:49:00,
2013-03-09 03:50:00,50.6,47.2,29.98,West,278,2.0,4.0,88,0.00,,,0.00,VWS V14.01,2013-03-09 11:50:00,
2013-03-09 03:54:00,50.5,47.1,29.98,West,276,0.0,2.0,88,0.00,,,0.00,VWS V14.01,2013-03-09 11:54:00,
2013-03-09 03:55:00,50.6,47.2,29.98,West,266,1.0,1.0,88,0.00,,,0.00,VWS V14.01,2013-03-09 11:55:00,
2013-03-09 03:56:00,50.6,47.2,29.98,West,267,2.0,2.0,88,0.00,,,0.00,VWS V14.01,2013-03-09 11:56:00,
2013-03-09 03:59:00,50.5,46.8,29.98,West,271,3.0,3.0,87,0.00,,,0.00,VWS V14.01,2013-03-09 11:59:00,
2013-03-09 04:00:00,50.5,46.8,29.98,WSW,249,8.0,8.0,87,0.00,,,0.00,VWS V14.01,2013-03-09 12:00:00,
2013-03-09 04:01:00,50.5,46.8,29.98,West,269,4.0,4.0,87,0.00,,,0.00,VWS V14.01,2013-03-09 12:01:00,
2013-03-09 04:02:00,50.5,46.8,29.98,West,277,3.0,4.0,87,0.00,,,0.00,VWS V14.01,2013-03-09 12:02:00,
2013-03-09 04:05:00,50.5,46.8,29.98,West,270,4.0,7.0,87,0.00,,,0.00,VWS V14.01,2013-03-09 12:05:00,
2013-03-09 04:07:00,50.4,46.4,29.99,WSW,246,3.0,6.0,86,0.00,,,0.00,VWS V14.01,2013-03-09 12:07:00,
2013-03-09 04:09:00,50.4,46.4,29.98,WNW,284,1.0,5.0,86,0.00,,,0.00,VWS V14.01,2013-03-09 12:09:00,
2013-03-09 04:11:00,50.4,46.4,29.99,SW,226,3.0,3.0,86,0.00,,,0.00,VWS V14.01,2013-03-09 12:11:00,
2013-03-09 04:13:00,50.4,46.4,29.99,West,270,2.0,3.0,86,0.00,,,0.00,VWS V14.01,2013-03-09 12:13:00,
2013-03-09 04:14:00,50.4,46.4,29.99,NW,314,1.0,3.0,86,0.00,,,0.00,VWS V14.01,2013-03-09 12:14:00,
2013-03-09 04:16:00,50.4,46.4,29.99,West,280,2.0,2.0,86,0.00,,,0.00,VWS V14.01,2013-03-09 12:16:00,
2013-03-09 04:19:00,50.4,46.4,29.99,WSW,248,2.0,4.0,86,0.00,,,0.00,VWS V14.01,2013-03-09 12:19:00,
2013-03-09 04:20:00,50.4,46.4,29.99,West,280,1.0,4.0,86,0.00,,,0.00,VWS V14.01,2013-03-09 12:20:00,
2013-03-09 04:22:00,50.3,46.3,29.99,WNW,294,5.0,6.0,86,0.00,,,0.00,VWS V14.01,2013-03-09 12:22:00,
2013-03-09 04:25:00,50.3,46.3,29.99,West,280,3.0,3.0,86,0.00,,,0.00,VWS V14.01,2013-03-09 12:25:00,
2013-03-09 04:26:00,50.3,46.3,29.99,West,267,1.0,4.0,86,0.00,,,0.00,VWS V14.01,2013-03-09 12:26:00,
2013-03-09 04:30:00,50.3,46.3,29.99,West,277,1.0,4.0,86,0.00,,,0.00,VWS V14.01,2013-03-09 12:30:00,
2013-03-09 04:31:00,50.3,46.3,29.99,WNW,282,2.0,4.0,86,0.00,,,0.00,VWS V14.01,2013-03-09 12:31:00,
2013-03-09 04:32:00,50.3,46.3,29.99,WNW,300,1.0,4.0,86,0.00,,,0.00,VWS V14.01,2013-03-09 12:32:00,
2013-03-09 04:35:00,50.3,46.3,29.99,West,269,2.0,3.0,86,0.00,,,0.00,VWS V14.01,2013-03-09 12:35:00,
2013-03-09 04:36:00,50.3,46.3,29.99,West,262,6.0,6.0,86,0.00,,,0.00,VWS V14.01,2013-03-09 12:36:00,
2013-03-09 04:38:00,50.2,46.2,29.99,West,273,5.0,5.0,86,0.00,,,0.00,VWS V14.01,2013-03-09 12:38:00,
2013-03-09 04:40:00,50.2,46.2,29.99,WNW,282,2.0,2.0,86,0.00,,,0.00,VWS V14.01,2013-03-09 12:40:00,
2013-03-09 04:41:00,50.2,46.2,29.99,West,262,3.0,3.0,86,0.00,,,0.00,VWS V14.01,2013-03-09 12:41:00,
2013-03-09 04:43:00,50.2,46.2,29.99,West,260,6.0,6.0,86,0.00,,,0.00,VWS V14.01,2013-03-09 12:43:00,
2013-03-09 04:45:00,50.2,46.2,29.99,West,276,0.0,0.0,86,0.00,,,0.00,VWS V14.01,2013-03-09 12:45:00,
2013-03-09 04:46:00,50.2,46.2,29.99,West,275,1.0,1.0,86,0.00,,,0.00,VWS V14.01,2013-03-09 12:46:00,
2013-03-09 04:48:00,50.2,46.2,29.99,WNW,288,2.0,2.0,86,0.00,,,0.00,VWS V14.01,2013-03-09 12:48:00,
2013-03-09 04:51:00,50.1,46.1,29.99,West,260,3.0,3.0,86,0.00,,,0.00,VWS V14.01,2013-03-09 12:51:00,
2013-03-09 04:52:00,50.1,46.1,29.99,West,277,2.0,4.0,86,0.00,,,0.00,VWS V14.01,2013-03-09 12:52:00,
2013-03-09 04:54:00,50.1,46.1,29.99,West,260,2.0,3.0,86,0.00,,,0.00,VWS V14.01,2013-03-09 12:54:00,
2013-03-09 04:55:00,50.1,46.1,30.00,West,281,1.0,2.0,86,0.00,,,0.00,VWS V14.01,2013-03-09 12:55:00,
2013-03-09 04:58:00,50.1,46.1,30.00,NW,307,2.0,5.0,86,0.00,,,0.00,VWS V14.01,2013-03-09 12:58:00,
2013-03-09 05:00:00,50.0,46.0,30.00,SW,236,2.0,4.0,86,0.00,,,0.00,VWS V14.01,2013-03-09 13:00:00,
2013-03-09 05:01:00,50.0,46.0,29.99,WSW,249,2.0,3.0,86,0.00,,,0.00,VWS V14.01,2013-03-09 13:01:00,
2013-03-09 05:04:00,50.0,46.0,30.00,West,272,0.0,0.0,86,0.00,,,0.00,VWS V14.01,2013-03-09 13:04:00,
2013-03-09 05:05:00,50.0,46.0,30.00,West,273,0.0,0.0,86,0.00,,,0.00,VWS V14.01,2013-03-09 13:05:00,
2013-03-09 05:08:00,50.0,46.0,30.00,West,264,1.0,2.0,86,0.00,,,0.00,VWS V14.01,2013-03-09 13:08:00,
2013-03-09 05:10:00,50.0,46.0,30.00,West,263,1.0,1.0,86,0.00,,,0.00,VWS V14.01,2013-03-09 13:10:00,
2013-03-09 05:13:00,49.9,46.2,30.00,West,266,0.0,1.0,87,0.00,,,0.00,VWS V14.01,2013-03-09 13:13:00,
2013-03-09 05:15:00,49.9,46.2,30.00,West,265,0.0,0.0,87,0.00,,,0.00,VWS V14.01,2013-03-09 13:15:00,
2013-03-09 05:18:00,49.9,46.2,30.00,West,276,1.0,2.0,87,0.00,,,0.00,VWS V14.01,2013-03-09 13:18:00,
2013-03-09 05:20:00,49.9,46.2,30.01,West,271,1.0,1.0,87,0.00,,,0.00,VWS V14.01,2013-03-09 13:20:00,
2013-03-09 05:21:00,49.9,46.2,30.01,West,262,0.0,1.0,87,0.00,,,0.00,VWS V14.01,2013-03-09 13:21:00,
2013-03-09 05:23:00,49.9,45.9,30.01,West,263,0.0,1.0,86,0.00,,,0.00,VWS V14.01,2013-03-09 13:23:00,
2013-03-09 05:25:00,49.9,45.9,30.01,West,271,1.0,1.0,86,0.00,,,0.00,VWS V14.01,2013-03-09 13:25:00,
2013-03-09 05:27:00,49.9,45.9,30.01,WSW,252,0.0,1.0,86,0.00,,,0.00,VWS V14.01,2013-03-09 13:27:00,
2013-03-09 05:29:00,49.8,45.8,30.01,West,264,0.0,1.0,86,0.00,,,0.00,VWS V14.01,2013-03-09 13:29:00,
2013-03-09 05:30:00,49.8,45.8,30.01,WNW,294,2.0,2.0,86,0.00,,,0.00,VWS V14.01,2013-03-09 13:30:00,
2013-03-09 05:32:00,49.8,45.8,30.01,WNW,282,1.0,2.0,86,0.00,,,0.00,VWS V14.01,2013-03-09 13:32:00,
2013-03-09 05:35:00,49.8,45.8,30.01,West,276,0.0,0.0,86,0.00,,,0.00,VWS V14.01,2013-03-09 13:35:00,
2013-03-09 05:36:00,49.8,45.8,30.01,West,276,0.0,0.0,86,0.00,,,0.00,VWS V14.01,2013-03-09 13:36:00,
2013-03-09 05:37:00,49.8,45.8,30.01,West,275,0.0,0.0,86,0.00,,,0.00,VWS V14.01,2013-03-09 13:37:00,
2013-03-09 05:38:00,49.8,45.8,30.01,West,278,0.0,1.0,86,0.00,,,0.00,VWS V14.01,2013-03-09 13:38:00,
2013-03-09 05:43:00,49.8,45.8,30.01,WSW,240,1.0,1.0,86,0.00,,,0.00,VWS V14.01,2013-03-09 13:43:00,
2013-03-09 05:44:00,49.8,45.8,30.01,West,273,3.0,4.0,86,0.00,,,0.00,VWS V14.01,2013-03-09 13:44:00,
2013-03-09 05:45:00,49.9,45.9,30.01,West,270,1.0,3.0,86,0.00,,,0.00,VWS V14.01,2013-03-09 13:45:00,
2013-03-09 05:49:00,49.9,45.9,30.01,West,262,3.0,3.0,86,0.00,,,0.00,VWS V14.01,2013-03-09 13:49:00,
2013-03-09 05:50:00,49.9,45.9,30.01,West,265,1.0,3.0,86,0.00,,,0.00,VWS V14.01,2013-03-09 13:50:00,
2013-03-09 05:52:00,49.9,45.9,30.01,West,270,2.0,2.0,86,0.00,,,0.00,VWS V14.01,2013-03-09 13:52:00,
2013-03-09 05:54:00,49.9,45.6,30.01,WSW,257,2.0,3.0,85,0.00,,,0.00,VWS V14.01,2013-03-09 13:54:00,
2013-03-09 05:55:00,49.9,45.6,30.01,WSW,249,2.0,3.0,85,0.00,,,0.00,VWS V14.01,2013-03-09 13:55:00,
2013-03-09 05:57:00,49.9,45.6,30.01,SW,217,2.0,2.0,85,0.00,,,0.00,VWS V14.01,2013-03-09 13:57:00,
2013-03-09 06:00:00,49.8,45.5,30.01,SW,232,1.0,3.0,85,0.00,,,0.00,VWS V14.01,2013-03-09 14:00:00,
2013-03-09 06:01:00,49.9,45.6,30.01,SSW,208,2.0,2.0,85,0.00,,,0.00,VWS V14.01,2013-03-09 14:01:00,
2013-03-09 06:03:00,49.8,45.5,30.01,SW,218,2.0,3.0,85,0.00,,,0.00,VWS V14.01,2013-03-09 14:03:00,
2013-03-09 06:04:00,49.8,45.5,30.01,SW,215,1.0,2.0,85,0.00,,,0.00,VWS V14.01,2013-03-09 14:04:00,
2013-03-09 06:07:00,49.7,45.4,30.02,SW,235,3.0,3.0,85,0.00,,,0.00,VWS V14.01,2013-03-09 14:07:00,
2013-03-09 06:08:00,49.7,45.4,30.01,SW,226,1.0,3.0,85,0.00,,,0.00,VWS V14.01,2013-03-09 14:08:00,
2013-03-09 06:09:00,49.7,45.4,30.01,WSW,242,1.0,1.0,85,0.00,,,0.00,VWS V14.01,2013-03-09 14:09:00,
2013-03-09 06:12:00,49.7,45.4,30.01,WNW,282,1.0,2.0,85,0.00,,,0.00,VWS V14.01,2013-03-09 14:12:00,
2013-03-09 06:13:00,49.6,45.3,30.01,West,270,2.0,2.0,85,0.00,,,0.00,VWS V14.01,2013-03-09 14:13:00,
2013-03-09 06:14:00,49.6,45.3,30.01,WSW,238,1.0,2.0,85,0.00,,,0.00,VWS V14.01,2013-03-09 14:14:00,
2013-03-09 06:16:00,49.6,45.3,30.01,West,270,1.0,2.0,85,0.00,,,0.00,VWS V14.01,2013-03-09 14:16:00,
2013-03-09 06:20:00,49.6,45.3,30.01,WSW,257,0.0,2.0,85,0.00,,,0.00,VWS V14.01,2013-03-09 14:20:00,
2013-03-09 06:21:00,49.6,45.3,30.01,WSW,257,1.0,1.0,85,0.00,,,0.00,VWS V14.01,2013-03-09 14:21:00,
2013-03-09 06:22:00,49.6,45.3,30.01,WSW,257,0.0,0.0,85,0.00,,,0.00,VWS V14.01,2013-03-09 14:22:00,
2013-03-09 06:25:00,49.6,45.3,30.01,WSW,249,1.0,1.0,85,0.00,,,0.00,VWS V14.01,2013-03-09 14:25:00,
2013-03-09 06:27:00,49.6,45.3,30.01,WSW,242,0.0,1.0,85,0.00,,,0.00,VWS V14.01,2013-03-09 14:27:00,
2013-03-09 06:29:00,49.6,45.3,30.01,WSW,242,0.0,0.0,85,0.00,,,0.00,VWS V14.01,2013-03-09 14:29:00,
2013-03-09 06:30:00,49.6,45.3,30.01,WSW,242,0.0,0.0,85,0.00,,,0.00,VWS V14.01,2013-03-09 14:30:00,
2013-03-09 06:32:00,49.6,45.3,30.01,WSW,242,0.0,0.0,85,0.00,,,0.00,VWS V14.01,2013-03-09 14:32:00,
2013-03-09 06:35:00,49.6,45.3,30.01,WSW,242,0.0,0.0,85,0.00,,,0.00,VWS V14.01,2013-03-09 14:35:00,
2013-03-09 06:36:00,49.6,45.3,30.01,WSW,242,0.0,0.0,85,0.00,,,0.00,VWS V14.01,2013-03-09 14:36:00,
2013-03-09 06:37:00,49.6,45.3,30.02,WSW,242,0.0,0.0,85,0.00,,,0.00,VWS V14.01,2013-03-09 14:37:00,
2013-03-09 06:40:00,49.6,45.6,30.02,WSW,242,0.0,1.0,86,0.00,,,0.00,VWS V14.01,2013-03-09 14:40:00,
2013-03-09 06:42:00,49.6,45.6,30.02,WSW,242,0.0,0.0,86,0.00,,,0.00,VWS V14.01,2013-03-09 14:42:00,
2013-03-09 06:43:00,49.7,45.7,30.02,WSW,242,0.0,0.0,86,0.00,,,0.00,VWS V14.01,2013-03-09 14:43:00,
2013-03-09 06:45:00,49.7,45.7,30.02,WSW,242,0.0,0.0,86,0.00,,,0.00,VWS V14.01,2013-03-09 14:45:00,
2013-03-09 06:46:00,49.7,45.7,30.02,WSW,242,0.0,0.0,86,0.00,,,0.00,VWS V14.01,2013-03-09 14:46:00,
2013-03-09 06:48:00,49.8,45.8,30.02,WSW,242,0.0,1.0,86,0.00,,,0.00,VWS V14.01,2013-03-09 14:48:00,
2013-03-09 06:51:00,49.8,45.8,30.02,WSW,242,0.0,0.0,86,0.00,,,0.00,VWS V14.01,2013-03-09 14:51:00,
2013-03-09 06:52:00,49.8,45.8,30.02,WSW,242,0.0,0.0,86,0.00,,,0.00,VWS V14.01,2013-03-09 14:52:00,
2013-03-09 06:56:00,50.0,46.0,30.02,SE,139,1.0,1.0,86,0.00,,,0.00,VWS V14.01,2013-03-09 14:56:00,
2013-03-09 06:57:00,50.0,46.0,30.02,SE,139,1.0,1.0,86,0.00,,,0.00,VWS V14.01,2013-03-09 14:57:00,
2013-03-09 06:58:00,50.0,46.0,30.02,SE,140,1.0,1.0,86,0.00,,,0.00,VWS V14.01,2013-03-09 14:58:00,
2013-03-09 07:01:00,50.1,46.1,30.02,ESE,111,1.0,1.0,86,0.00,,,0.00,VWS V14.01,2013-03-09 15:01:00,
2013-03-09 07:02:00,50.1,46.1,30.02,ESE,121,1.0,1.0,86,0.00,,,0.00,VWS V14.01,2013-03-09 15:02:00,
2013-03-09 07:03:00,50.1,46.1,30.02,ESE,121,1.0,1.0,86,0.00,,,0.00,VWS V14.01,2013-03-09 15:03:00,
2013-03-09 07:05:00,50.1,46.1,30.02,ESE,121,0.0,1.0,86,0.00,,,0.00,VWS V14.01,2013-03-09 15:05:00,
2013-03-09 07:07:00,50.1,46.4,30.02,ESE,117,1.0,1.0,87,0.00,,,0.00,VWS V14.01,2013-03-09 15:07:00,
2013-03-09 07:08:00,50.2,46.5,30.02,ESE,103,1.0,2.0,87,0.00,,,0.00,VWS V14.01,2013-03-09 15:08:00,
2013-03-09 07:09:00,50.2,46.5,30.02,SE,124,1.0,1.0,87,0.00,,,0.00,VWS V14.01,2013-03-09 15:09:00,
2013-03-09 07:12:00,50.3,46.6,30.03,ESE,115,2.0,2.0,87,0.00,,,0.00,VWS V14.01,2013-03-09 15:12:00,
2013-03-09 07:13:00,50.3,46.6,30.03,SE,133,1.0,2.0,87,0.00,,,0.00,VWS V14.01,2013-03-09 15:13:00,
2013-03-09 07:15:00,50.3,46.6,30.03,ESE,117,1.0,2.0,87,0.00,,,0.00,VWS V14.01,2013-03-09 15:15:00,
2013-03-09 07:17:00,50.3,46.6,30.03,SSE,153,0.0,1.0,87,0.00,,,0.00,VWS V14.01,2013-03-09 15:17:00,
2013-03-09 07:18:00,50.4,46.7,30.03,SE,143,0.0,1.0,87,0.00,,,0.00,VWS V14.01,2013-03-09 15:18:00,
2013-03-09 07:19:00,50.4,46.7,30.03,SE,132,1.0,2.0,87,0.00,,,0.00,VWS V14.01,2013-03-09 15:19:00,
2013-03-09 07:20:00,50.4,46.7,30.03,ESE,120,1.0,1.0,87,0.00,,,0.00,VWS V14.01,2013-03-09 15:20:00,
2013-03-09 07:24:00,50.5,46.5,30.03,ESE,121,1.0,2.0,86,0.00,,,0.00,VWS V14.01,2013-03-09 15:24:00,
2013-03-09 07:25:00,50.5,46.8,30.03,East,81,1.0,1.0,87,0.00,,,0.00,VWS V14.01,2013-03-09 15:25:00,
2013-03-09 07:26:00,50.6,46.9,30.03,SE,143,1.0,1.0,87,0.00,,,0.00,VWS V14.01,2013-03-09 15:26:00,
2013-03-09 07:27:00,50.6,46.6,30.03,SE,146,1.0,2.0,86,0.00,,,0.00,VWS V14.01,2013-03-09 15:27:00,
2013-03-09 07:32:00,50.6,46.6,30.04,SE,134,2.0,2.0,86,0.00,,,0.00,VWS V14.01,2013-03-09 15:32:00,
2013-03-09 07:33:00,50.7,46.7,30.04,ESE,110,1.0,1.0,86,0.00,,,0.00,VWS V14.01,2013-03-09 15:33:00,
2013-03-09 07:35:00,50.8,46.8,30.04,SE,143,2.0,3.0,86,0.00,,,0.00,VWS V14.01,2013-03-09 15:35:00,
2013-03-09 07:37:00,50.9,46.9,30.04,SE,144,2.0,3.0,86,0.00,,,0.00,VWS V14.01,2013-03-09 15:37:00,
2013-03-09 07:39:00,51.1,46.8,30.04,SE,126,1.0,3.0,85,0.00,,,0.00,VWS V14.01,2013-03-09 15:39:00,
2013-03-09 07:40:00,51.1,46.8,30.04,SSE,152,3.0,3.0,85,0.00,,,0.00,VWS V14.01,2013-03-09 15:40:00,
2013-03-09 07:42:00,51.2,46.8,30.04,SE,138,0.0,3.0,85,0.00,,,0.00,VWS V14.01,2013-03-09 15:42:00,
2013-03-09 07:43:00,51.2,46.8,30.04,ESE,107,1.0,3.0,85,0.00,,,0.00,VWS V14.01,2013-03-09 15:43:00,
2013-03-09 07:45:00,51.4,47.0,30.04,ESE,117,1.0,2.0,85,0.00,,,0.00,VWS V14.01,2013-03-09 15:45:00,
2013-03-09 07:48:00,51.6,46.9,30.04,SSE,158,2.0,2.0,84,0.00,,,0.00,VWS V14.01,2013-03-09 15:48:00,
2013-03-09 07:49:00,51.6,46.9,30.04,SSW,205,1.0,2.0,84,0.00,,,0.00,VWS V14.01,2013-03-09 15:49:00,
2013-03-09 07:51:00,51.7,47.0,30.04,ESE,115,0.0,2.0,84,0.00,,,0.00,VWS V14.01,2013-03-09 15:51:00,
2013-03-09 07:53:00,51.7,46.7,30.05,SE,129,1.0,1.0,83,0.00,,,0.00,VWS V14.01,2013-03-09 15:53:00,
2013-03-09 07:54:00,51.8,46.8,30.05,SE,143,0.0,1.0,83,0.00,,,0.00,VWS V14.01,2013-03-09 15:54:00,
2013-03-09 07:55:00,51.8,46.8,30.05,SSE,156,1.0,1.0,83,0.00,,,0.00,VWS V14.01,2013-03-09 15:55:00,
2013-03-09 07:58:00,52.3,47.6,30.05,ESE,113,2.0,3.0,84,0.00,,,0.00,VWS V14.01,2013-03-09 15:58:00,
2013-03-09 07:59:00,52.4,47.7,30.05,ENE,71,2.0,3.0,84,0.00,,,0.00,VWS V14.01,2013-03-09 15:59:00,
2013-03-09 08:00:00,52.5,47.2,30.05,SE,141,2.0,4.0,82,0.00,,,0.00,VWS V14.01,2013-03-09 16:00:00,
2013-03-09 08:01:00,52.6,47.3,30.05,ESE,108,2.0,4.0,82,0.00,,,0.00,VWS V14.01,2013-03-09 16:01:00,
2013-03-09 08:04:00,52.7,47.0,30.05,ESE,121,0.0,2.0,81,0.00,,,0.00,VWS V14.01,2013-03-09 16:04:00,
2013-03-09 08:06:00,52.8,47.1,30.05,East,79,4.0,4.0,81,0.00,,,0.00,VWS V14.01,2013-03-09 16:06:00,
2013-03-09 08:07:00,52.8,47.1,30.05,East,84,1.0,4.0,81,0.00,,,0.00,VWS V14.01,2013-03-09 16:07:00,
2013-03-09 08:08:00,52.8,47.1,30.05,East,98,1.0,3.0,81,0.00,,,0.00,VWS V14.01,2013-03-09 16:08:00,
2013-03-09 08:09:00,52.9,47.2,30.05,SE,133,1.0,3.0,81,0.00,,,0.00,VWS V14.01,2013-03-09 16:09:00,
2013-03-09 08:12:00,53.2,47.5,30.05,SSE,162,1.0,1.0,81,0.00,,,0.00,VWS V14.01,2013-03-09 16:12:00,
2013-03-09 08:14:00,53.6,47.9,30.06,SE,129,2.0,2.0,81,0.00,,,0.00,VWS V14.01,2013-03-09 16:14:00,
2013-03-09 08:15:00,53.7,48.0,30.06,ENE,57,3.0,3.0,81,0.00,,,0.00,VWS V14.01,2013-03-09 16:15:00,
2013-03-09 08:17:00,53.9,47.9,30.06,NE,34,1.0,2.0,80,0.00,,,0.00,VWS V14.01,2013-03-09 16:17:00,
2013-03-09 08:19:00,54.2,48.2,30.06,SSE,152,2.0,2.0,80,0.00,,,0.00,VWS V14.01,2013-03-09 16:19:00,
2013-03-09 08:20:00,54.3,47.9,30.06,ESE,113,2.0,3.0,79,0.00,,,0.00,VWS V14.01,2013-03-09 16:20:00,
2013-03-09 08:22:00,54.3,47.6,30.06,ESE,103,0.0,2.0,78,0.00,,,0.00,VWS V14.01,2013-03-09 16:22:00,
2013-03-09 08:23:00,54.3,47.2,30.06,East,96,3.0,3.0,77,0.00,,,0.00,VWS V14.01,2013-03-09 16:23:00,
2013-03-09 08:25:00,54.3,47.2,30.06,SE,135,0.0,4.0,77,0.00,,,0.00,VWS V14.01,2013-03-09 16:25:00,
2013-03-09 08:26:00,54.3,47.2,30.06,SSE,162,1.0,1.0,77,0.00,,,0.00,VWS V14.01,2013-03-09 16:26:00,
2013-03-09 08:29:00,54.5,47.5,30.06,East,98,4.0,5.0,77,0.00,,,0.00,VWS V14.01,2013-03-09 16:29:00,
2013-03-09 08:30:00,54.5,47.1,30.06,East,101,3.0,5.0,76,0.00,,,0.00,VWS V14.01,2013-03-09 16:30:00,
2013-03-09 08:31:00,54.4,47.0,30.06,East,86,3.0,3.0,76,0.00,,,0.00,VWS V14.01,2013-03-09 16:31:00,
2013-03-09 08:34:00,54.5,47.5,30.06,East,100,4.0,5.0,77,0.00,,,0.00,VWS V14.01,2013-03-09 16:34:00,
2013-03-09 08:35:00,54.5,47.1,30.06,SE,124,4.0,5.0,76,0.00,,,0.00,VWS V14.01,2013-03-09 16:35:00,
2013-03-09 08:36:00,54.5,47.1,30.06,ESE,102,3.0,4.0,76,0.00,,,0.00,VWS V14.01,2013-03-09 16:36:00,
2013-03-09 08:39:00,54.6,47.5,30.06,East,89,3.0,5.0,77,0.00,,,0.00,VWS V14.01,2013-03-09 16:39:00,
2013-03-09 08:41:00,54.7,47.6,30.06,SE,145,2.0,4.0,77,0.00,,,0.00,VWS V14.01,2013-03-09 16:41:00,
2013-03-09 08:42:00,54.7,47.3,30.06,ESE,117,2.0,2.0,76,0.00,,,0.00,VWS V14.01,2013-03-09 16:42:00,
2013-03-09 08:46:00,54.9,46.8,30.06,SSE,150,5.0,6.0,74,0.00,,,0.00,VWS V14.01,2013-03-09 16:46:00,
2013-03-09 08:47:00,54.9,46.4,30.06,ESE,105,4.0,5.0,73,0.00,,,0.00,VWS V14.01,2013-03-09 16:47:00,
2013-03-09 08:49:00,54.7,45.9,30.06,SE,124,4.0,5.0,72,0.00,,,0.00,VWS V14.01,2013-03-09 16:49:00,
2013-03-09 08:51:00,54.7,45.9,30.06,ESE,121,2.0,3.0,72,0.00,,,0.00,VWS V14.01,2013-03-09 16:51:00,
2013-03-09 08:52:00,54.7,45.9,30.06,SSE,157,3.0,6.0,72,0.00,,,0.00,VWS V14.01,2013-03-09 16:52:00,
2013-03-09 08:54:00,54.8,46.0,30.06,SE,129,3.0,3.0,72,0.00,,,0.00,VWS V14.01,2013-03-09 16:54:00,
2013-03-09 08:56:00,54.9,45.7,30.06,ESE,119,4.0,6.0,71,0.00,,,0.00,VWS V14.01,2013-03-09 16:56:00,
2013-03-09 08:57:00,54.9,46.1,30.06,SE,128,1.0,6.0,72,0.00,,,0.00,VWS V14.01,2013-03-09 16:57:00,
2013-03-09 09:00:00,55.1,46.6,30.06,ENE,73,3.0,5.0,73,0.00,,,0.00,VWS V14.01,2013-03-09 17:00:00,
2013-03-09 09:01:00,55.2,46.3,30.06,SE,129,3.0,4.0,72,0.00,,,0.00,VWS V14.01,2013-03-09 17:01:00,
2013-03-09 09:02:00,55.2,46.3,30.06,ENE,75,2.0,4.0,72,0.00,,,0.00,VWS V14.01,2013-03-09 17:02:00,
2013-03-09 09:05:00,55.4,46.9,30.06,ESE,105,3.0,5.0,73,0.00,,,0.00,VWS V14.01,2013-03-09 17:05:00,
2013-03-09 09:07:00,55.4,46.9,30.06,East,100,4.0,8.0,73,0.00,,,0.00,VWS V14.01,2013-03-09 17:07:00,
2013-03-09 09:08:00,55.3,46.8,30.06,ENE,63,3.0,5.0,73,0.00,,,0.00,VWS V14.01,2013-03-09 17:08:00,
2013-03-09 09:10:00,55.4,47.3,30.06,ESE,117,1.0,3.0,74,0.00,,,0.00,VWS V14.01,2013-03-09 17:10:00,
2013-03-09 09:13:00,55.8,48.0,30.06,SE,124,3.0,6.0,75,0.00,,,0.00,VWS V14.01,2013-03-09 17:13:00,
2013-03-09 09:14:00,55.8,47.3,30.06,ENE,72,4.0,8.0,73,0.00,,,0.00,VWS V14.01,2013-03-09 17:14:00,
2013-03-09 09:15:00,55.8,46.9,30.06,ESE,113,5.0,5.0,72,0.00,,,0.00,VWS V14.01,2013-03-09 17:15:00,
2013-03-09 11:06:00,55.5,46.6,30.06,ENE,74,5.0,7.0,72,0.00,,,0.00,VWS V14.01,2013-03-09 19:06:00,
2013-03-09 11:07:00,58.7,47.8,30.07,SSW,204,3.0,6.0,67,0.00,,,0.00,VWS V14.01,2013-03-09 19:07:00,
2013-03-09 11:11:00,58.7,47.4,30.07,SSW,195,4.0,5.0,66,0.00,,,0.00,VWS V14.01,2013-03-09 19:11:00,
2013-03-09 11:12:00,58.8,47.9,30.07,South,176,7.0,8.0,67,0.00,,,0.00,VWS V14.01,2013-03-09 19:12:00,
2013-03-09 11:17:00,58.8,47.5,30.07,SW,231,10.0,10.0,66,0.00,,,0.00,VWS V14.01,2013-03-09 19:17:00,
2013-03-09 11:19:00,58.8,47.5,30.08,South,177,7.0,7.0,66,0.00,,,0.00,VWS V14.01,2013-03-09 19:19:00,
2013-03-09 11:22:00,58.9,48.0,30.08,SW,235,5.0,8.0,67,0.00,,,0.00,VWS V14.01,2013-03-09 19:22:00,
2013-03-09 11:23:00,58.8,47.5,30.08,SSW,198,2.0,7.0,66,0.00,,,0.00,VWS V14.01,2013-03-09 19:23:00,
2013-03-09 11:25:00,59.0,47.7,30.08,SSE,162,2.0,6.0,66,0.00,,,0.00,VWS V14.01,2013-03-09 19:25:00,
2013-03-09 11:27:00,59.3,48.0,30.08,SE,137,5.0,9.0,66,0.00,,,0.00,VWS V14.01,2013-03-09 19:27:00,
2013-03-09 11:30:00,59.3,47.5,30.08,SSE,155,6.0,8.0,65,0.00,,,0.00,VWS V14.01,2013-03-09 19:30:00,
2013-03-09 11:31:00,59.3,47.5,30.08,South,176,8.0,12.0,65,0.00,,,0.00,VWS V14.01,2013-03-09 19:31:00,
2013-03-09 11:32:00,59.1,47.4,30.08,WSW,256,7.0,8.0,65,0.00,,,0.00,VWS V14.01,2013-03-09 19:32:00,
2013-03-09 11:36:00,59.2,47.5,30.07,ESE,117,4.0,7.0,65,0.00,,,0.00,VWS V14.01,2013-03-09 19:36:00,
2013-03-09 16:54:00,59.3,47.5,30.08,SE,145,3.0,4.0,65,0.00,,,0.00,VWS V14.01,2013-03-10 00:54:00,
2013-03-09 16:59:00,58.3,46.6,30.07,West,276,2.0,3.0,65,0.00,,,0.00,VWS V14.01,2013-03-10 00:59:00,
2013-03-09 17:00:00,58.4,46.7,30.07,WSW,249,6.0,7.0,65,0.00,,,0.00,VWS V14.01,2013-03-10 01:00:00,
2013-03-09 17:01:00,58.3,46.6,30.07,SW,232,3.0,5.0,65,0.00,,,0.00,VWS V14.01,2013-03-10 01:01:00,
2013-03-09 17:05:00,58.4,46.7,30.07,WSW,249,4.0,4.0,65,0.00,,,0.00,VWS V14.01,2013-03-10 01:05:00,
2013-03-09 17:06:00,58.4,46.7,30.07,West,263,6.0,8.0,65,0.00,,,0.00,VWS V14.01,2013-03-10 01:06:00,
2013-03-09 17:07:00,58.2,46.5,30.07,West,264,3.0,6.0,65,0.00,,,0.00,VWS V14.01,2013-03-10 01:07:00,
2013-03-09 17:11:00,58.2,46.9,30.07,WSW,246,7.0,7.0,66,0.00,,,0.00,VWS V14.01,2013-03-10 01:11:00,
2013-03-09 17:12:00,58.1,46.4,30.07,West,262,5.0,8.0,65,0.00,,,0.00,VWS V14.01,2013-03-10 01:12:00,
2013-03-09 17:13:00,58.0,46.3,30.07,WSW,257,5.0,6.0,65,0.00,,,0.00,VWS V14.01,2013-03-10 01:13:00,
2013-03-09 17:17:00,57.6,46.7,30.08,West,270,4.0,5.0,67,0.00,,,0.00,VWS V14.01,2013-03-10 01:17:00,
2013-03-09 17:18:00,57.6,46.7,30.08,WSW,246,1.0,5.0,67,0.00,,,0.00,VWS V14.01,2013-03-10 01:18:00,
2013-03-09 17:20:00,57.5,46.6,30.08,West,276,2.0,4.0,67,0.00,,,0.00,VWS V14.01,2013-03-10 01:20:00,
2013-03-09 17:21:00,57.5,46.6,30.08,SSW,210,2.0,3.0,67,0.00,,,0.00,VWS V14.01,2013-03-10 01:21:00,
2013-03-09 17:23:00,57.4,46.5,30.08,WSW,247,2.0,3.0,67,0.00,,,0.00,VWS V14.01,2013-03-10 01:23:00,
2013-03-09 17:25:00,57.3,46.5,30.08,West,272,3.0,5.0,67,0.00,,,0.00,VWS V14.01,2013-03-10 01:25:00,
2013-03-09 17:26:00,57.2,46.4,30.08,West,276,5.0,7.0,67,0.00,,,0.00,VWS V14.01,2013-03-10 01:26:00,